Location: Christian Reformed Church
(43.0975°N, 93.8113°W)
Time: 09:24:30
(UTC+00:00)

IRS-P3 - Pass Details

Date: 23 March 2026
Orbit: 810 x 816 km, 99.0° (Epoch: 20 April)

Event Time Altitude Azimuth Distance (km) Brightness Sun altitude
Rises 01:54:43 0° 213° (SSW) 3,329 7.5 -16.0°
Reaches altitude 10° 01:58:08 10° 236° (SW) 2,403 7.1 -16.6°
Maximum altitude 02:01:05 15° 270° (W) 2,079 7.3 -17.1°
Drops below altitude 10° 02:04:02 10° 304° (NW) 2,411 7.8 -17.6°
Sets 02:07:30 0° 327° (NNW) 3,348 8.2 -18.2°
